Location: Lachepaillet
(43.4918°N, 1.4874°W)
Time: 00:24:55
(UTC+00:00)

Cosmos 1464 Rocket - Pass Details

Date: 15 May 2026
Orbit: 952 x 1000 km, 82.9° (Epoch: 9 June)

Event Time Altitude Azimuth Distance (km) Brightness Sun altitude
Exits shadow 21:18:41 25° 156° (SSE) 1,812 4.8 -17.1°
Maximum altitude 21:22:04 53° 91° (E) 1,165 4.1 -17.5°
Drops below altitude 10° 21:28:03 10° 17° (NNE) 2,710 6.8 -18.2°
Sets 21:30:38 0° 13° (NNE) 3,668 7.6 -18.5°
